Location: Moscow
(38.3171°N, 79.0889°W)
Time: 23:12:34
(UTC+00:00)

BREEZE-M DEB (TANK) - Pass Details

Date: 07 November 2025
Orbit: 274 x 13337 km, 49.4° (Epoch: 14 December)

Event Time Altitude Azimuth Distance (km) Brightness Sun altitude
Rises 23:04:30 0° 226° (SW) 1,900 6.7 -11.0°
Reaches altitude 10° 23:05:54 10° 222° (SW) 1,177 5.4 -11.3°
Maximum altitude 23:08:03 63° 139° (SE) 456 2.2 -11.7°
Enters shadow 23:11:06 16° 60° (ENE) 1,717 4.7 -12.3°
